Home   Weather   Kapfenberg   Past weeks

Flag for Austria Past Weather in Kapfenberg, Styria, Austria — Yesterday and Last 2 Weeks

Now
68 °F

Partly sunny.


Feels Like: 68 °F
Forecast: 42 / 64 °F
Wind: 6 mph from East

Location: Zeltweg

Current Time: Sep 26, 2016 at 4:07:40 PM

Latest Report: Sep 26, 2016 at 3:20 PM


Visibility: 15 mi

Pressure: 30.15 "Hg (28.43 "Hg at 504m altitude)

Humidity: 38%

Dew Point: 41 °F

Location of KapfenbergLocation

Past Weather in Kapfenberg — Graph

°F

Kapfenberg Temperature Yesterday

Maximum temperature yesterday: 70 °F (at 4:50 PM)
Minimum temperature yesterday: 41 °F (at 4:50 AM)
Average temperature yesterday: 54 °F

High & Low Weather Summary for the Past Weeks

 TemperatureHumidityPressure
High81 °F (Sep 12, 4:20 PM)100% (Sep 12, 4:50 AM)30.39 "Hg (Sep 12, 4:50 AM)
Low37 °F (Sep 22, 4:50 AM)33% (Sep 24, 3:50 PM)29.83 "Hg (Sep 17, 7:50 AM)
Average59 °F72%30.07 "Hg
* Reported Sep 11 2:50 PM — Sep 26 2:50 PM, Kapfenberg, Weather by CustomWeather, © 2016

Note: Actual official high and low records may vary slightly from our data, if they occured in-between our weather recording intervals... More about our weather records

Advertising

Kapfenberg Weather History for the Previous 24 Hours

Scroll right to see more
 ConditionsComfort  
Time TempWeatherWind HumidityBarometerVisibility
2:50 PM
Mon, Sep 26
66 °FPartly sunny.6 mph43%30.15 "Hg16 mi
2:20 PM66 °FPartly sunny.3 mph49%30.18 "Hg16 mi
1:50 PM64 °FPartly sunny.3 mph56%30.18 "Hg16 mi
1:20 PM63 °FPartly sunny.2 mph59%30.18 "Hg12 mi
12:50 PM61 °FPartly sunny.1 mph63%30.18 "Hg12 mi
12:20 PM59 °FPartly sunny.1 mph68%30.21 "Hg12 mi
11:50 AM55 °FPartly sunny.2 mph77%30.21 "Hg12 mi
11:20 AM54 °FPartly sunny.3 mph82%30.21 "Hg6 mi
10:50 AM50 °FFog.3 mph88%30.21 "Hg3 mi
10:20 AM48 °FFog.2 mph94%30.21 "Hg3 mi
9:50 AM46 °FFog.2 mph93%30.21 "Hg2 mi
9:20 AM45 °FQuite cool.1 mph100%30.21 "Hg1 mi
8:50 AM45 °FFog.3 mph93%30.24 "Hg0 mi
8:20 AM43 °FBroken clouds.2 mph100%30.21 "Hg1 mi
7:50 AM43 °FBroken clouds.2 mph100%30.21 "Hg1 mi
7:20 AM43 °FFog.2 mph100%30.21 "Hg0 mi
6:50 AM45 °FFog.1 mph93%30.21 "Hg0 mi
5:50 AM43 °FSleet. Passing clouds.1 mph100%30.18 "Hg1 mi
9:50 PM
Sun, Sep 25
50 °FPassing clouds.3 mph88%30.18 "Hg19 mi
8:50 PM55 °FPassing clouds.2 mph82%30.15 "Hg19 mi
7:50 PM55 °FPassing clouds.1 mph77%30.12 "Hg25 mi
6:50 PM63 °FScattered clouds.3 mph59%30.12 "Hg25 mi
5:50 PM66 °FScattered clouds.7 mph52%30.09 "Hg25 mi
4:50 PM70 °FPassing clouds.5 mph43%30.09 "Hg25 mi
Weather by CustomWeather, © 2016

See weather overviewHow to use our weather pages